Date_and_time,latitude,longitude,wind_speed,RelWindDirFrom,WindDirFrom,air_pressure,air_temperature,relative_humidity,Temp,platform_speed_wrt_ground,air_pressure_at_mean_sea_level,platform_orientation
2019-05-20 23:50,50.6304483333333,-96.9807766666667,7.8,8.2,21,993.99,15.0,45,10.63,0.0,1020.55,270.0
2019-05-21 00:00,50.6304583333333,-96.9807666666667,7.7,8.1,23,994.02,14.8,45,10.71,0.0,1020.58,38.0
2019-05-21 00:10,50.6304583333333,-96.980775,7.0,7.3,20,994.04,14.9,45,10.76,0.0,1020.61,38.0
2019-05-21 00:20,50.6304533333333,-96.98079,6.9,7.3,23,994.00,14.5,51,10.74,0.0,1020.58,38.0
2019-05-21 00:30,50.6304583333333,-96.9807633333333,7.9,9.1,27,993.92,14.5,50,10.69,0.0,1020.49,38.0
2019-05-21 00:40,50.6304716666667,-96.98079,7.4,8.9,19,993.89,14.2,55,10.61,0.0,1020.48,38.0
2019-05-21 00:50,50.6304466666667,-96.9807766666667,7.6,8.5,21,993.88,14.1,56,10.63,0.0,1020.49,38.0
2019-05-21 01:00,50.6304516666667,-96.9807783333333,7.9,8.6,28,993.78,14.0,57,10.66,0.0,1020.34,212.1
2019-05-21 01:10,50.6304516666667,-96.9807766666667,6.4,7.8,17,993.68,13.7,61,10.66,0.0,1020.25,212.1
2019-05-21 01:20,50.6304516666667,-96.9807783333333,7.1,7.9,15,993.58,13.8,59,10.66,0.0,1020.18,212.1
2019-05-21 01:30,50.6304366666667,-96.9807766666667,7.9,8.8,17,993.50,13.7,58,10.68,0.0,1020.10,212.1
2019-05-21 01:40,50.630455,-96.9807666666667,7.7,8.3,19,993.40,13.4,61,10.71,0.0,1020.02,212.1
2019-05-21 01:50,50.6304333333333,-96.9807933333333,6.6,7.5,22,993.37,12.9,65,10.72,0.0,1020.02,212.1
2019-05-21 02:00,50.6304533333333,-96.980765,6.2,6.9,18,993.35,12.6,67,10.70,0.0,1020.01,90.0
2019-05-21 02:10,50.6304566666667,-96.98076,6.9,8.4,9,993.28,12.5,66,10.67,0.0,1019.96,90.0
2019-05-21 02:20,50.6304716666667,-96.98076,8.4,9.6,11,993.10,12.8,61,10.67,0.0,1019.77,90.0
2019-05-21 02:30,50.6304516666667,-96.9807616666667,8.4,9.4,15,993.04,12.7,65,10.71,0.0,1019.72,90.0
2019-05-21 02:40,50.63045,-96.9807666666667,9.6,11.0,24,993.02,12.3,67,10.73,0.0,1019.72,90.0
2019-05-21 02:50,50.6304483333333,-96.9807716666667,11.1,13.4,30,992.91,12.1,68,10.70,0.0,1019.63,90.0
2019-05-21 03:00,50.6304483333333,-96.9807733333333,12.2,13.9,38,992.96,12.1,68,10.70,0.0,1019.69,194.5
2019-05-21 03:10,50.6304466666667,-96.9807716666667,11.1,12.5,41,993.18,12.0,68,10.72,0.0,1019.92,194.5
2019-05-21 03:20,50.6304466666667,-96.9807716666667,11.4,13.1,39,993.21,11.8,69,10.73,0.0,1019.96,194.5
2019-05-21 03:30,50.630455,-96.9807833333333,10.3,11.4,37,993.29,11.6,72,10.72,0.0,1020.06,194.5
2019-05-21 03:40,50.6304533333333,-96.9807783333333,9.6,10.9,43,993.32,11.3,74,10.73,0.0,1020.13,194.5
2019-05-21 03:50,50.63045,-96.9807766666667,8.4,10.1,42,993.30,11.1,77,10.72,0.0,1020.14,194.5
2019-05-21 04:00,50.63045,-96.9807733333333,7.5,9.2,39,993.34,11.1,77,10.72,0.0,1020.18,90.0
2019-05-21 04:10,50.6304466666667,-96.980775,6.4,7.7,33,993.40,11.0,78,10.67,0.0,1020.23,90.0
2019-05-21 04:20,50.6304466666667,-96.980775,5.8,7.5,359,993.40,10.9,78,10.60,0.0,1020.25,90.0
2019-05-21 04:30,50.63046,-96.9807766666667,6.6,9.0,21,993.37,11.0,73,10.52,0.0,1020.23,90.0
2019-05-21 04:40,50.6304583333333,-96.9807716666667,6.7,8.8,34,993.37,11.0,74,10.46,0.0,1020.24,90.0
2019-05-21 04:50,50.6304516666667,-96.980765,5.5,7.4,19,993.39,10.8,75,10.42,0.0,1020.27,90.0
2019-05-21 05:00,50.6304416666667,-96.98076,5.7,7.3,3,993.37,10.8,73,10.39,0.0,1020.25,165.5
2019-05-21 05:10,50.6304416666667,-96.98076,5.6,6.8,13,993.39,10.8,71,10.45,0.0,1020.28,165.5
2019-05-21 05:20,50.6304583333333,-96.98077,5.4,6.9,26,993.36,10.8,73,10.56,0.0,1020.26,165.5
2019-05-21 05:30,50.6304566666667,-96.9807583333333,4.6,5.7,10,993.38,10.7,76,10.74,0.0,1020.30,165.5
2019-05-21 05:40,50.6304566666667,-96.98076,3.3,4.7,349,993.35,10.6,74,10.94,0.0,1020.29,165.5
2019-05-21 05:50,50.6304216666667,-96.9807483333333,3.3,6.9,3,993.34,10.5,71,11.00,0.0,1020.28,165.5
2019-05-21 06:00,50.6304633333333,-96.9807616666667,3.8,4.9,13,993.30,10.8,74,10.98,0.0,1020.22,3.2
2019-05-21 06:10,50.6304583333333,-96.98076,2.1,4.0,339,993.30,10.6,73,10.98,0.0,1020.24,3.2
2019-05-21 06:20,50.630455,-96.9807583333333,1.5,3.1,341,993.30,10.4,71,11.00,0.0,1020.25,3.2
2019-05-21 06:30,50.630455,-96.9807616666667,2.3,3.4,348,993.30,10.4,70,11.00,0.0,1020.25,3.2
2019-05-21 06:40,50.6304566666667,-96.980765,0.8,2.2,317,993.40,10.0,73,11.00,0.0,1020.38,3.2
2019-05-21 06:50,50.6304566666667,-96.9807666666667,2.0,2.6,289,993.55,9.1,73,11.02,0.0,1020.57,3.2
2019-05-21 07:00,50.6304566666667,-96.9807666666667,1.7,2.2,300,993.60,8.8,74,11.05,0.0,1020.64,90.0
2019-05-21 07:10,50.6304566666667,-96.9807666666667,2.4,3.5,316,993.55,8.7,72,11.10,0.0,1020.60,90.0
2019-05-21 07:20,50.6304566666667,-96.980765,2.1,3.2,307,993.68,8.7,71,11.14,0.0,1020.73,90.0
2019-05-21 07:30,50.6304566666667,-96.9807633333333,2.3,3.2,333,993.70,8.9,71,11.18,0.0,1020.76,90.0
2019-05-21 07:40,50.6304566666667,-96.9807633333333,3.0,4.0,349,993.69,9.9,66,11.22,0.0,1020.70,90.0
2019-05-21 07:50,50.6304533333333,-96.9807733333333,3.0,4.0,353,993.69,10.4,65,11.25,0.0,1020.66,90.0
2019-05-21 08:00,50.6304516666667,-96.9807716666667,2.7,4.4,345,993.70,9.9,67,11.23,0.0,1020.70,347.4
2019-05-21 08:10,50.63045,-96.98077,2.8,3.7,356,993.71,10.0,66,11.22,0.0,1020.72,347.4
2019-05-21 08:20,50.6304516666667,-96.9807683333333,0.7,2.7,331,993.84,9.4,69,11.26,0.0,1020.87,347.4
2019-05-21 08:30,50.630415,-96.9807583333333,1.3,2.3,222,993.97,7.6,75,11.27,0.0,1021.12,347.4
2019-05-21 08:40,50.6304583333333,-96.9807766666667,2.1,2.9,229,993.95,7.1,75,11.27,0.0,1021.17,347.4
2019-05-21 08:50,50.6304583333333,-96.9807733333333,1.0,1.8,288,993.86,7.6,71,11.25,0.0,1021.06,347.4
2019-05-21 09:00,50.6304566666667,-96.9807733333333,2.2,3.4,330,993.66,7.5,73,11.25,0.0,1020.86,192.6
2019-05-21 09:10,50.630455,-96.9807716666667,2.4,3.3,323,993.56,7.4,76,11.25,0.0,1020.78,192.6
2019-05-21 09:20,50.6304533333333,-96.98077,2.8,3.5,323,993.56,7.6,73,11.21,0.0,1020.76,192.6
2019-05-21 09:30,50.6304533333333,-96.9807683333333,3.2,4.2,337,993.48,8.0,72,11.19,0.0,1020.61,192.6
2019-05-21 09:40,50.6304533333333,-96.9807683333333,3.2,4.1,338,993.45,8.4,70,11.14,0.0,1020.53,192.6
2019-05-21 09:50,50.6304533333333,-96.9807683333333,3.3,4.3,341,993.49,8.5,68,11.10,0.0,1020.59,192.6
2019-05-21 10:00,50.6304533333333,-96.9807683333333,2.1,4.0,336,993.68,8.3,70,11.06,0.0,1020.79,0.0
2019-05-21 10:10,50.6304533333333,-96.98077,2.7,3.7,331,993.58,7.9,70,11.06,0.0,1020.73,0.0
2019-05-21 10:20,50.6304533333333,-96.9807683333333,2.7,3.8,327,993.61,7.6,71,11.10,0.0,1020.86,0.0
2019-05-21 10:30,50.6304533333333,-96.9807683333333,2.3,2.9,334,993.77,7.5,71,11.11,0.0,1021.06,0.0
2019-05-21 10:40,50.6304533333333,-96.9807683333333,2.1,3.0,340,993.83,7.4,72,11.13,0.0,1021.10,0.0
2019-05-21 10:50,50.6304533333333,-96.9807683333333,2.8,3.8,341,993.75,7.3,72,11.12,0.0,1021.03,0.0
2019-05-21 11:00,50.6304533333333,-96.98077,2.0,3.4,331,993.91,7.3,72,11.13,0.0,1021.20,90.0
2019-05-21 11:10,50.63045,-96.9808233333333,1.2,2.0,331,994.03,7.8,71,11.12,0.0,1021.29,90.0
2019-05-21 11:20,50.6304483333333,-96.9807916666667,1.1,2.0,343,994.14,8.1,69,11.15,0.0,1021.37,90.0
2019-05-21 11:30,50.6304416666667,-96.9807816666667,0.3,1.0,359,994.17,8.3,73,11.17,0.0,1021.37,90.0
2019-05-21 11:40,50.6304483333333,-96.980785,0.2,1.0,346,994.17,8.4,69,11.17,0.0,1021.37,90.0
2019-05-21 11:50,50.630455,-96.9807566666667,0.3,1.3,15,994.21,9.2,66,11.16,0.0,1021.37,90.0
2019-05-21 12:00,50.63045,-96.9807666666667,0.8,1.4,40,994.18,9.9,68,11.15,0.0,1021.33,90.0
2019-05-21 12:10,50.6304516666667,-96.9807716666667,0.2,1.4,121,994.16,10.2,70,11.14,0.0,1021.30,90.0
2019-05-21 12:20,50.6304433333333,-96.9807783333333,0.5,1.6,46,994.13,10.6,70,11.13,0.0,1021.27,90.0
2019-05-21 12:30,50.6304433333333,-96.98078,1.0,2.1,1,994.12,10.5,71,11.12,0.0,1021.26,90.0
2019-05-21 12:40,50.63044,-96.9807833333333,1.5,2.7,5,994.18,9.9,74,11.10,0.0,1021.35,90.0
2019-05-21 12:50,50.6304433333333,-96.980775,2.4,3.4,15,994.28,9.8,74,11.10,0.0,1021.46,90.0
2019-05-21 13:00,50.6304433333333,-96.9807666666667,3.9,5.0,17,994.12,9.7,75,11.10,0.0,1021.28,360.0
2019-05-21 13:10,50.6304483333333,-96.980765,3.6,4.6,23,994.28,9.9,74,11.10,0.0,1021.42,360.0
2019-05-21 13:20,50.6304533333333,-96.9807533333333,4.2,4.9,27,994.23,9.9,74,11.10,0.0,1021.36,360.0
2019-05-21 13:30,50.630465,-96.980765,3.7,4.6,17,994.21,9.9,75,11.07,0.0,1021.33,360.0
2019-05-21 13:40,50.6304483333333,-96.9807583333333,4.6,5.5,29,994.17,9.9,77,11.07,0.0,1021.26,360.0
2019-05-21 13:50,50.6304533333333,-96.9807583333333,4.9,5.6,28,994.22,9.8,79,11.06,0.0,1021.28,360.0
2019-05-21 14:00,50.6295333333333,-96.9810483333333,3.9,5.3,37,994.29,9.8,80,11.03,0.3,1021.34,191.6
2019-05-21 14:10,50.61709,-96.9712333333333,5.1,7.7,105,994.20,9.8,80,11.39,5.0,1021.22,191.6
2019-05-21 14:20,50.61653,-96.971325,3.4,3.8,39,994.33,10.0,83,11.45,0.2,1021.35,191.6
2019-05-21 14:30,50.616625,-96.9716266666667,3.1,3.7,48,994.36,9.7,86,11.40,0.1,1021.42,191.6
2019-05-21 14:40,50.6166166666667,-96.9716216666667,3.4,4.1,53,994.12,9.9,86,11.36,0.0,1021.17,191.6
2019-05-21 14:50,50.6166116666667,-96.9716116666667,3.4,4.2,49,993.98,9.9,88,11.49,0.0,1021.03,191.6
2019-05-21 15:00,50.61661,-96.9716116666667,3.4,4.3,49,993.94,10.0,88,11.69,0.0,1020.98,157.3
2019-05-21 15:10,50.6166083333333,-96.9716133333333,4.3,4.9,48,993.80,9.9,90,11.83,0.0,1020.83,157.3
2019-05-21 15:20,50.6166083333333,-96.971615,4.1,4.6,50,993.69,9.9,90,11.91,0.0,1020.73,157.3
2019-05-21 15:30,50.6166066666667,-96.9716133333333,3.4,4.4,53,993.67,10.1,88,11.94,0.0,1020.69,157.3
2019-05-21 15:40,50.61661,-96.9716166666667,2.8,3.3,68,993.74,10.4,88,11.97,0.0,1020.75,157.3
2019-05-21 15:50,50.6166283333333,-96.9716466666667,2.8,3.3,66,993.73,10.5,90,12.04,0.0,1020.74,157.3
2019-05-21 16:00,50.6166166666667,-96.9716333333333,2.6,3.5,68,993.80,10.6,93,12.05,0.0,1020.81,157.2
2019-05-21 16:10,50.6166183333333,-96.9716333333333,2.6,3.0,62,993.69,10.9,91,12.11,0.0,1020.67,157.2
2019-05-21 16:20,50.6166216666667,-96.9716433333333,2.8,3.2,73,993.65,11.0,92,12.20,0.0,1020.64,157.2
2019-05-21 16:30,50.6166383333333,-96.9716366666667,2.5,3.0,67,993.62,11.3,92,12.26,0.0,1020.59,157.2
2019-05-21 16:40,50.6210933333333,-96.9743816666667,3.6,8.3,33,993.61,11.4,94,12.17,1.7,1020.57,157.2
2019-05-21 16:50,50.6304433333333,-96.980745,4.6,7.7,9,993.54,11.6,92,11.79,3.7,1020.49,157.2
2019-05-21 17:00,50.6304416666667,-96.980765,2.0,2.4,24,993.58,12.5,87,11.73,0.0,1020.49,11.9
2019-05-21 17:10,50.6304416666667,-96.9807666666667,1.8,2.5,23,993.54,13.0,78,11.64,0.0,1020.43,11.9
2019-05-21 17:20,50.63044,-96.9807683333333,2.3,2.8,23,993.44,13.4,71,11.53,0.0,1020.29,11.9
2019-05-21 17:30,50.6304333333333,-96.9807616666667,2.5,3.8,32,993.41,13.9,69,11.48,0.0,1020.23,11.9
2019-05-21 17:40,50.63044,-96.9807683333333,4.5,5.4,36,993.33,14.0,73,11.48,0.0,1020.14,11.9
2019-05-21 17:50,50.6304366666667,-96.9807483333333,5.7,6.8,37,993.30,13.9,72,11.51,0.0,1020.10,11.9
2019-05-21 18:00,50.6302166666667,-96.9807066666667,6.5,7.0,38,993.27,13.7,70,11.51,0.1,1020.07,337.0
2019-05-21 18:10,50.6275183333333,-96.9612516666667,9.6,16.9,57,992.97,13.6,61,11.65,4.5,1019.75,337.0
2019-05-21 18:20,50.6270716666667,-96.961585,8.2,8.9,37,993.09,13.3,62,11.17,0.2,1019.88,337.0
2019-05-21 18:30,50.62704,-96.9616,8.9,9.8,41,993.05,13.3,61,11.25,0.0,1019.83,337.0
2019-05-21 18:40,50.627035,-96.9615933333333,9.7,10.0,38,992.95,13.5,55,11.16,0.0,1019.72,337.0
2019-05-21 18:50,50.627035,-96.9615933333333,9.5,9.9,36,992.96,13.7,53,11.32,0.0,1019.67,337.0
2019-05-21 19:00,50.6270333333333,-96.9615883333333,9.9,10.2,33,992.87,14.0,50,11.38,0.0,1019.53,31.5
2019-05-21 19:10,50.62703,-96.961585,9.0,9.5,32,992.84,14.0,53,11.47,0.0,1019.49,31.5
2019-05-21 19:20,50.6270283333333,-96.96158,8.5,9.2,32,992.77,14.2,51,11.53,0.0,1019.39,31.5
2019-05-21 19:30,50.6270266666667,-96.9615766666667,9.9,10.3,31,992.58,14.2,50,11.55,0.0,1019.19,31.5
2019-05-21 19:40,50.6269966666667,-96.9615283333333,9.4,10.1,23,992.47,14.7,44,11.58,0.0,1019.05,31.5
2019-05-21 19:50,50.6269966666667,-96.9615333333333,10.0,11.3,25,992.30,14.4,49,11.62,0.0,1018.90,31.5
2019-05-21 20:00,50.6269833333333,-96.9615,9.1,10.1,21,992.17,14.6,50,11.73,0.0,1018.77,105.8
2019-05-21 20:10,50.626995,-96.9615666666667,10.5,11.3,28,992.01,14.6,48,11.72,0.0,1018.62,105.8
2019-05-21 20:20,50.6269933333333,-96.961555,10.3,11.2,27,991.84,14.8,46,11.73,0.0,1018.43,105.8
2019-05-21 20:30,50.6269933333333,-96.9615483333333,10.2,11.1,27,991.71,14.8,47,11.73,0.0,1018.28,105.8
2019-05-21 20:40,50.6269966666667,-96.9615483333333,10.7,11.7,29,991.61,14.8,46,11.72,0.0,1018.17,105.8
2019-05-21 20:50,50.6275466666667,-96.9633716666667,11.1,14.2,29,991.46,14.9,45,11.65,0.5,1018.00,105.8
2019-05-21 21:00,50.630355,-96.98075,10.2,14.5,359,991.33,15.1,47,11.90,4.1,1017.86,360.0
2019-05-21 21:10,50.6304616666667,-96.98078,10.2,11.3,19,991.27,15.4,52,12.21,0.0,1017.78,360.0
2019-05-21 21:20,50.6304583333333,-96.9807733333333,10.1,11.2,19,991.11,15.1,57,12.12,0.0,1017.63,360.0
2019-05-21 21:30,50.6304583333333,-96.980775,10.4,12.6,20,990.94,15.1,57,12.03,0.0,1017.42,360.0
2019-05-21 21:40,50.63048,-96.9807916666667,11.5,12.8,20,990.68,15.1,56,11.89,0.0,1017.17,360.0
2019-05-21 21:50,50.6304416666667,-96.980785,10.8,12.1,20,990.56,15.2,56,11.79,0.0,1017.04,360.0
2019-05-21 22:00,50.6304633333333,-96.9807733333333,11.0,12.1,18,990.47,15.2,55,11.76,0.0,1016.95,285.8
2019-05-21 22:10,50.6304416666667,-96.980765,11.0,12.3,16,990.39,15.4,54,11.73,0.0,1016.85,285.8
2019-05-21 22:20,50.6304433333333,-96.98077,10.9,12.2,15,990.32,15.5,54,11.69,0.0,1016.77,285.8
2019-05-21 22:30,50.6304466666667,-96.9807766666667,10.9,12.2,14,990.19,15.6,53,11.67,0.0,1016.63,285.8
2019-05-21 22:40,50.6304266666667,-96.980795,10.8,11.9,12,990.04,15.8,50,11.65,0.0,1016.46,285.8
2019-05-21 22:50,50.6304483333333,-96.9807833333333,11.6,13.5,11,989.92,16.5,45,11.64,0.0,1016.29,285.8
2019-05-21 23:00,50.6304583333333,-96.980785,12.0,13.2,11,989.82,16.3,49,11.65,0.0,1016.19,285.8
2019-05-21 23:10,50.63046,-96.9807883333333,10.9,12.9,10,989.71,16.4,47,11.65,0.0,1016.08,285.8
2019-05-21 23:20,50.6304583333333,-96.9807866666667,11.1,13.1,12,989.62,17.1,42,11.79,0.0,1015.96,285.8
